• In Lithuania
  • List of Countries
  • For 7 days
  • Water Temperature
  • Satellite Maps
  • Weather Map
  • Weather Widgets
  • user-avatar
    Login

    Hourly Weather Pakchongo

    Today, 20 June, Wednesday

    Time Temperature Precipitation Wind Pressure Humidity
    00:00 +27°C° 0 mm 3 mps 724 mmHg 87%
    01:00 +26°C° 0 mm 2 mps 724 mmHg 88%
    02:00 +26°C° 0 mm 2 mps 724 mmHg 88%
    03:00 +26°C° 0 mm 2 mps 724 mmHg 89%
    04:00 +26°C° 0 mm 2 mps 724 mmHg 89%
    05:00 +26°C° 0 mm 2 mps 724 mmHg 88%
    06:00 +26°C° 0 mm 2 mps 725 mmHg 88%
    07:00 +27°C° 0 mm 2 mps 725 mmHg 87%
    08:00 +28°C° 0.1 mm 3 mps 725 mmHg 79%
    09:00 +30°C° 0.1 mm 3 mps 725 mmHg 72%
    10:00 +32°C° 0.1 mm 4 mps 726 mmHg 65%
    11:00 +33°C° 0.3 mm 4 mps 725 mmHg 64%
    12:00 +33°C° 0.3 mm 4 mps 725 mmHg 63%
    13:00 +34°C° 0.3 mm 4 mps 725 mmHg 62%
    14:00 +33°C° 0.8 mm 4 mps 724 mmHg 64%
    15:00 +33°C° 0.8 mm 4 mps 724 mmHg 66%
    16:00 +33°C° 0.8 mm 4 mps 723 mmHg 67%
    17:00 +30°C° 0.8 mm 4 mps 723 mmHg 72%
    18:00 +29°C° 0.8 mm 4 mps 723 mmHg 78%
    19:00 +28°C° 0.8 mm 3 mps 723 mmHg 83%
    20:00 +27°C° 0.3 mm 3 mps 724 mmHg 83%
    21:00 +27°C° 0.3 mm 3 mps 725 mmHg 84%
    22:00 +27°C° 0.3 mm 3 mps 725 mmHg 85%
    23:00 +27°C° 0.1 mm 3 mps 725 mmHg 85%

    Tomorrow, 21 June, Thursday

    Time Temperature Precipitation Wind Pressure Humidity
    00:00 +27°C° 0.1 mm 3 mps 726 mmHg 85%
    01:00 +26°C° 0.1 mm 3 mps 726 mmHg 86%
    02:00 +26°C° 0.1 mm 3 mps 725 mmHg 86%
    03:00 +26°C° 0.1 mm 3 mps 725 mmHg 86%
    04:00 +26°C° 0.1 mm 3 mps 725 mmHg 86%
    05:00 +26°C° 0 mm 3 mps 725 mmHg 86%
    06:00 +26°C° 0 mm 3 mps 725 mmHg 86%
    07:00 +26°C° 0 mm 3 mps 725 mmHg 85%
    08:00 +28°C° 0 mm 3 mps 726 mmHg 79%
    09:00 +29°C° 0 mm 4 mps 726 mmHg 73%
    10:00 +30°C° 0 mm 4 mps 727 mmHg 67%
    11:00 +32°C° 0.3 mm 4 mps 726 mmHg 66%
    12:00 +33°C° 0.3 mm 5 mps 726 mmHg 64%
    13:00 +34°C° 0.3 mm 5 mps 725 mmHg 63%
    14:00 +33°C° 0.4 mm 5 mps 725 mmHg 63%
    15:00 +33°C° 0.4 mm 5 mps 724 mmHg 64%
    16:00 +33°C° 0.4 mm 5 mps 724 mmHg 64%
    17:00 +32°C° 0.1 mm 4 mps 724 mmHg 68%
    18:00 +30°C° 0.1 mm 3 mps 724 mmHg 72%
    19:00 +29°C° 0.1 mm 2 mps 724 mmHg 76%
    20:00 +28°C° 0.1 mm 2 mps 724 mmHg 78%
    21:00 +28°C° 0.1 mm 2 mps 725 mmHg 80%
    22:00 +27°C° 0.1 mm 2 mps 726 mmHg 82%
    23:00 +27°C° 0 mm 2 mps 725 mmHg 82%

    Day after tomorrow, 22 June, Friday

    Time Temperature Precipitation Wind Pressure Humidity
    00:00 +27°C° 0 mm 2 mps 725 mmHg 83%
    01:00 +27°C° 0 mm 2 mps 725 mmHg 84%
    02:00 +26°C° 0 mm 2 mps 725 mmHg 84%
    03:00 +26°C° 0 mm 2 mps 725 mmHg 84%
    04:00 +26°C° 0 mm 2 mps 724 mmHg 84%
    05:00 +26°C° 0 mm 3 mps 725 mmHg 84%
    06:00 +26°C° 0 mm 3 mps 725 mmHg 83%
    07:00 +26°C° 0 mm 3 mps 725 mmHg 83%
    08:00 +27°C° 0 mm 3 mps 726 mmHg 77%
    09:00 +29°C° 0 mm 4 mps 726 mmHg 71%
    10:00 +30°C° 0 mm 4 mps 727 mmHg 66%
    11:00 +32°C° 0.1 mm 4 mps 726 mmHg 64%
    12:00 +32°C° 0.1 mm 4 mps 726 mmHg 62%
    13:00 +33°C° 0.1 mm 5 mps 725 mmHg 61%
    14:00 +33°C° 0.4 mm 4 mps 725 mmHg 62%
    15:00 +33°C° 0.4 mm 4 mps 724 mmHg 63%
    16:00 +33°C° 0.4 mm 4 mps 723 mmHg 64%
    17:00 +30°C° 0.2 mm 4 mps 724 mmHg 67%
    18:00 +29°C° 0.2 mm 3 mps 724 mmHg 70%
    19:00 +28°C° 0.2 mm 2 mps 724 mmHg 73%
    20:00 +28°C° 0 mm 2 mps 725 mmHg 73%
    21:00 +28°C° 0 mm 3 mps 725 mmHg 74%
    22:00 +27°C° 0 mm 3 mps 726 mmHg 75%
    23:00 +27°C° 0 mm 3 mps 726 mmHg 76%

    23 June, Saturday

    Time Temperature Precipitation Wind Pressure Humidity
    00:00 +27°C° 0 mm 3 mps 725 mmHg 77%
    01:00 +26°C° 0 mm 3 mps 725 mmHg 78%
    02:00 +26°C° 0 mm 3 mps 725 mmHg 78%
    03:00 +26°C° 0 mm 3 mps 725 mmHg 78%
    04:00 +25°C° 0 mm 3 mps 724 mmHg 79%
    05:00 +26°C° 0 mm 3 mps 725 mmHg 79%
    06:00 +26°C° 0 mm 3 mps 725 mmHg 79%
    07:00 +26°C° 0 mm 3 mps 725 mmHg 79%
    08:00 +27°C° 0 mm 3 mps 726 mmHg 74%
    09:00 +29°C° 0 mm 4 mps 726 mmHg 69%
    10:00 +30°C° 0 mm 4 mps 726 mmHg 63%
    11:00 +32°C° 0 mm 4 mps 726 mmHg 60%
    12:00 +33°C° 0 mm 4 mps 725 mmHg 57%
    13:00 +34°C° 0 mm 4 mps 725 mmHg 54%
    14:00 +34°C° 0.4 mm 4 mps 724 mmHg 57%
    15:00 +33°C° 0.4 mm 4 mps 724 mmHg 60%
    16:00 +33°C° 0.4 mm 4 mps 723 mmHg 64%
    17:00 +30°C° 1.1 mm 4 mps 724 mmHg 68%
    18:00 +29°C° 1.1 mm 3 mps 724 mmHg 73%
    19:00 +28°C° 1.1 mm 2 mps 724 mmHg 78%
    20:00 +28°C° 0.5 mm 2 mps 725 mmHg 79%
    21:00 +27°C° 0.5 mm 3 mps 725 mmHg 80%
    22:00 +27°C° 0.5 mm 3 mps 726 mmHg 80%
    23:00 +27°C° 0 mm 3 mps 725 mmHg 81%

    24 June, Sunday

    Time Temperature Precipitation Wind Pressure Humidity
    00:00 +26°C° 0 mm 2 mps 725 mmHg 83%
    01:00 +26°C° 0 mm 2 mps 725 mmHg 84%
    02:00 +26°C° 0 mm 2 mps 725 mmHg 84%
    03:00 +25°C° 0 mm 2 mps 724 mmHg 85%
    04:00 +25°C° 0 mm 2 mps 724 mmHg 85%
    05:00 +25°C° 0 mm 2 mps 724 mmHg 84%
    06:00 +26°C° 0 mm 3 mps 725 mmHg 84%
    07:00 +26°C° 0 mm 3 mps 725 mmHg 83%
    08:00 +28°C° 0 mm 3 mps 726 mmHg 76%
    09:00 +29°C° 0 mm 4 mps 726 mmHg 70%
    10:00 +32°C° 0 mm 4 mps 726 mmHg 63%
    11:00 +32°C° 0.4 mm 4 mps 726 mmHg 62%
    12:00 +33°C° 0.4 mm 4 mps 725 mmHg 62%
    13:00 +33°C° 0.4 mm 4 mps 725 mmHg 61%
    14:00 +33°C° 1.2 mm 4 mps 724 mmHg 62%
    15:00 +33°C° 1.2 mm 4 mps 724 mmHg 64%
    16:00 +32°C° 1.2 mm 4 mps 723 mmHg 66%
    17:00 +30°C° 0.5 mm 3 mps 724 mmHg 69%
    18:00 +29°C° 0.5 mm 3 mps 724 mmHg 73%
    19:00 +28°C° 0.5 mm 2 mps 725 mmHg 76%
    20:00 +28°C° 0 mm 2 mps 725 mmHg 77%
    21:00 +27°C° 0 mm 3 mps 725 mmHg 78%
    22:00 +27°C° 0 mm 3 mps 726 mmHg 79%
    23:00 +27°C° 0 mm 3 mps 726 mmHg 80%

    25 June, Monday

    Time Temperature Precipitation Wind Pressure Humidity
    00:00 +26°C° 0 mm 3 mps 725 mmHg 81%
    01:00 +26°C° 0 mm 3 mps 725 mmHg 81%
    02:00 +26°C° 0 mm 3 mps 725 mmHg 82%
    03:00 +25°C° 0 mm 2 mps 725 mmHg 82%
    04:00 +25°C° 0 mm 2 mps 725 mmHg 83%
    05:00 +25°C° 0 mm 3 mps 725 mmHg 82%
    06:00 +26°C° 0 mm 3 mps 726 mmHg 81%
    07:00 +26°C° 0 mm 3 mps 726 mmHg 80%
    08:00 +27°C° 0 mm 3 mps 726 mmHg 75%
    09:00 +28°C° 0 mm 4 mps 727 mmHg 70%
    10:00 +30°C° 0 mm 4 mps 727 mmHg 64%
    11:00 +32°C° 0 mm 4 mps 726 mmHg 62%
    12:00 +33°C° 0 mm 5 mps 726 mmHg 59%
    13:00 +34°C° 0 mm 5 mps 725 mmHg 56%
    14:00 +33°C° 0.3 mm 5 mps 725 mmHg 57%
    15:00 +33°C° 0.3 mm 4 mps 725 mmHg 59%
    16:00 +33°C° 0.3 mm 4 mps 724 mmHg 60%
    17:00 +32°C° 0.1 mm 4 mps 724 mmHg 64%
    18:00 +30°C° 0.1 mm 3 mps 724 mmHg 68%
    19:00 +28°C° 0.1 mm 2 mps 725 mmHg 71%
    20:00 +28°C° 0 mm 3 mps 725 mmHg 72%
    21:00 +28°C° 0 mm 3 mps 725 mmHg 73%
    22:00 +27°C° 0 mm 3 mps 726 mmHg 74%
    23:00 +27°C° 0 mm 3 mps 726 mmHg 75%
    Show more